Preview of NWS' New Version of Forecast
This preview is not operational and should not be used for support decisions.

Regional Weather Roundup (RWR)

Issued by National Weather Service (NWS)

                            
000
ASUS43 KMKX 221821
RWRWI 

WISCONSIN REGIONAL WEATHER ROUNDUP
NATIONAL WEATHER SERVICE MILWAUKEE/SULLIVAN WI
100 PM CDT MON JUL 22 2019

NOTE: "FAIR" INDICATES FEW OR NO CLOUDS BELOW 12,000 FEET WITH NO
SIGNIFICANT WEATHER AND/OR OBSTRUCTIONS TO VISIBILITY.

WIZ001-002-006>008-014>016-023>028-221900-
NORTHWEST WISCONSIN
  
CITY           SKY/WX    TMP DP  RH WIND       PRES   REMARKS
SUPERIOR ARPT  FAIR      78  54  43 W12G17    30.17F                  
6HR MIN TEMP:  53; 6HR MAX TEMP:  77;                                

ASHLAND        FAIR      77  55  46 NW9       30.16S                  
6HR MIN TEMP:  56; 6HR MAX TEMP:  77;                                

HAYWARD        FAIR      75  53  46 VRB7      30.20S                  
6HR MIN TEMP:  51; 6HR MAX TEMP:  76;                                

SIREN          FAIR      76  49  38 N13G20    30.21F                  
6HR MIN TEMP:  51; 6HR MAX TEMP:  75;                                

CUMBERLAND     NOT AVBL                                               
RICE LAKE      PTSUNNY   73  56  54 NW6       30.21F                  
6HR MIN TEMP:  59; 6HR MAX TEMP:  73;                                

CHETEK         FAIR      75  54  48 N3        30.20S                  
6HR MIN TEMP:  60; 6HR MAX TEMP:  75;                                

LADYSMITH      PTSUNNY   73  51  45 N9        30.20S                  
6HR MIN TEMP:  57; 6HR MAX TEMP:  74;                                

EAU CLAIRE     FAIR      76  50  40 N12       30.19S                  
6HR MIN TEMP:  62; 6HR MAX TEMP:  76;                                

MENOMONIE      FAIR      72  48  42 N10G18    30.20S                  
6HR MIN TEMP:  59; 6HR MAX TEMP:  72;                                

NEW RICHMOND   FAIR      73  51  46 N9        30.23S                  
6HR MIN TEMP:  57; 6HR MAX TEMP:  74;                                

OSCEOLA        FAIR      74  54  48 N10G17    30.25S                  
6HR MIN TEMP:  55; 6HR MAX TEMP:  74;                                

$$
 
WIZ003>005-009-010-017-018-221900-
NORTH CENTRAL WISCONSIN
  
CITY           SKY/WX    TMP DP  RH WIND       PRES   REMARKS
MANITOWISH WTR PTSUNNY   74  49  41 N10G25    30.16S                  
6HR MIN TEMP:  55; 6HR MAX TEMP:  73;                                

ARBOR VITAE    PTSUNNY   77  53  42 N12G18    30.15S                  
6HR MIN TEMP:  57; 6HR MAX TEMP:  77;                                

WOODRUFF       PTSUNNY   77  53  42 N12G18    30.15S                  
6HR MIN TEMP:  57; 6HR MAX TEMP:  77;                                

RHINELANDER    FAIR      73  46  38 MISG      30.16F                  
6HR MIN TEMP:  58; 6HR MAX TEMP:  74;                                

EAGLE RIVER    FAIR      74  42  32 NW14G23   30.14F                  
6HR MIN TEMP:  54; 6HR MAX TEMP:  75;                                

LAND O LAKES   PTSUNNY   74  45  35 NW16G23   30.15S                  
6HR MIN TEMP:  52; 6HR MAX TEMP:  74;                                

PHILLIPS       PTSUNNY   73  50  45 N10G18    30.17S                  
6HR MIN TEMP:  54; 6HR MAX TEMP:  73;                                

TOMAHAWK       PTSUNNY   71  46  41 NW9       30.16S                  
6HR MIN TEMP:  53; 6HR MAX TEMP:  73;                                

MEDFORD        FAIR      71  49  45 N13       30.17F                  
6HR MIN TEMP:  56; 6HR MAX TEMP:  71;                                

MERRILL        PTSUNNY   73  52  46 NW9       30.15F                  
6HR MIN TEMP:  56; 6HR MAX TEMP:  73;                                

$$
 
WIZ029-030-035-036-043>047-221900-
CENTRAL WISCONSIN
  
CITY           SKY/WX    TMP DP  RH WIND       PRES   REMARKS
WAUSAU         PTSUNNY   72  48  42 NW9G18    30.14S                  
6HR MIN TEMP:  57; 6HR MAX TEMP:  73;                                

MOSINEE        MOSUNNY   72  48  43 N14       30.16F                  
MARSHFIELD     FAIR      73  50  44 N12G24    30.17R                  
6HR MIN TEMP:  60; 6HR MAX TEMP:  74;                                

STEVENS POINT  FAIR      71  47  41 NW9       30.15F                  
6HR MIN TEMP:  56; 6HR MAX TEMP:  72;                                

WAUPACA        NOT AVBL                                               
WAUTOMA        FAIR      73  49  42 NW10G17   30.14S                  
6HR MIN TEMP:  63; 6HR MAX TEMP:  74;                                

WISC RAPIDS    NOT AVBL                                               
CAMP DOUGLAS   MOSUNNY   72  50  46 N14       30.14S                  
$$
 
WIZ011>013-019>022-031-037>040-048>050-221900-
NORTHEAST WISCONSIN
  
CITY           SKY/WX    TMP DP  RH WIND       PRES   REMARKS
ANTIGO         FAIR      72  50  46 N12       30.15S                  
SHAWANO        FAIR      76  46  34 NW7       30.11F                  
6HR MIN TEMP:  61; 6HR MAX TEMP:  75;                                

OCONTO         FAIR      74  47  38 N10       30.09F                  
6HR MIN TEMP:  59; 6HR MAX TEMP:  74;                                

STURGEON BAY   FAIR      70  52  52 NW7       30.10F                  
6HR MIN TEMP:  64; 6HR MAX TEMP:  71;                                

GREEN BAY      FAIR      75  52  44 MISG      30.10F                  
6HR MIN TEMP:  61; 6HR MAX TEMP:  75;                                

MANITOWOC      FAIR      72  48  42 N14G21    30.10S                  
6HR MIN TEMP:  62; 6HR MAX TEMP:  72;                                

APPLETON       MOSUNNY   72  43  35 N13G20    30.11S                  
CLINTONVILLE   FAIR      74  43  32 N6        30.12S                  
6HR MIN TEMP:  61; 6HR MAX TEMP:  74; 6HR PCP:  0.01;                

OSHKOSH        FAIR      74  52  46 N13       30.11S                  
6HR MIN TEMP:  64; 6HR MAX TEMP:  75;                                

$$
 
WIZ032>034-041-042-053>061-221900-
SOUTHWEST WISCONSIN
  
CITY           SKY/WX    TMP DP  RH WIND       PRES   REMARKS
LA CROSSE      FAIR      78  50  37 NW14      30.18R                  
6HR MIN TEMP:  66; 6HR MAX TEMP:  78;                                

SPARTA         FAIR      73  49  42 N10G17    30.18S                  
6HR MIN TEMP:  61; 6HR MAX TEMP:  73;                                

VIROQUA        FAIR      71  56  58 N9        30.18S                  
6HR MIN TEMP:  61; 6HR MAX TEMP:  72;                                

BOSCOBEL       FAIR      77  55  46 N9G18     30.15S                  
6HR MIN TEMP:  66; 6HR MAX TEMP:  78;                                

PRAIRIE DU CHI FAIR      76  52  42 N9        30.15S                  
6HR MIN TEMP:  65; 6HR MAX TEMP:  79;                                

PLATTEVILLE    PTSUNNY   74  61  64 N9        30.15S                  
6HR MIN TEMP:  64; 6HR MAX TEMP:  74;                                

$$

WIZ056-057-062-063-064-067-068-221900-
SOUTH CENTRAL WISCONSIN
  
CITY           SKY/WX    TMP DP  RH WIND       PRES   REMARKS
REEDSBURG      FAIR      73  54  50 N14G22    30.14S                  
6HR MIN TEMP:  63; 6HR MAX TEMP:  73;                                

BARABOO/DELLS  FAIR      73  49  43 N9        30.14S                  
6HR MIN TEMP:  62; 6HR MAX TEMP:  73;                                

LONE ROCK      PTSUNNY   73  54  51 N14G24    30.14S                  
6HR MIN TEMP:  66; 6HR MAX TEMP:  75;                                

MINERAL POINT  FAIR      73  59  60 N13       30.15S                  
MADISON        FAIR      73  50  44 N14G24    30.12S                  
6HR MIN TEMP:  65; 6HR MAX TEMP:  74;                                

MIDDLETON      FAIR      74  53  47 N10G23    30.13F                  
6HR MIN TEMP:  65; 6HR MAX TEMP:  75;                                

WATERTOWN      NOT AVBL                                               
MONROE         PTSUNNY   73  52  47 N9G17     30.13S                  
JANESVILLE     MOSUNNY   75  52  43 N13G20    30.11F                  
$$
 
WIZ051-052-058>065-066-070>072-221900-
SOUTHEAST WISCONSIN
  
CITY           SKY/WX    TMP DP  RH WIND       PRES   REMARKS
MILWAUKEE      FAIR      72  50  45 NE12      30.09S                  
6HR MIN TEMP:  63; 6HR MAX TEMP:  72;                                

WAUKESHA       MOSUNNY   70  48  46 N10G18    30.11S                  
MILWAUKEE/TIMM MOSUNNY   73  45  35 N16       30.10F                  
RACINE         FAIR      71  50  47 N13       30.11S                  
6HR MIN TEMP:  62; 6HR MAX TEMP:  71;                                

KENOSHA        FAIR      74  54  49 NE12      30.09F                  
6HR MIN TEMP:  65; 6HR MAX TEMP:  74;                                

FOND DU LAC    FAIR      75  51  43 N15       30.12S                  
6HR MIN TEMP:  66; 6HR MAX TEMP:  76;                                

SHEBOYGAN      FAIR      74  49  41 N12G20    30.09S                  
6HR MIN TEMP:  62; 6HR MAX TEMP:  74;                                

WEST BEND      PTSUNNY   70  50  49 N12G17    30.10S                  
JUNEAU         PTSUNNY   72  52  50 N10G17    30.12F                  
6HR MIN TEMP:  61; 6HR MAX TEMP:  71;                                

$$

LSZ147-162-221900-
LAKE SUPERIOR
  
STATION/POSITION TIME  TEMP    WIND        PRES    WAVE
                       AIR SEA DIR/SP/G            HT/PER
                 (UTC) (F)     (DEG/KT/KT) (MB)    (FT/S)
W MID LAKE BUOY  1750   56 48  240/ 10/ 10 1019.7F   1/ 4
$$
 
LMZ867-665-643>646-221900-
LAKE MICHIGAN
  
STATION/POSITION TIME  TEMP    WIND        PRES    WAVE
                       AIR SEA DIR/SP/G            HT/PER
                 (UTC) (F)     (DEG/KT/KT) (MB)    (FT/S)
CHAMBERS ISLAND  1740   71      50/  1/  2 1017.9F
S GREEN BAY BUOY 1800   75 73  350/  8/ 12 1019.1
N MID LAKE BUOY  1810   67 66  280/  6/  8 1018.4
NORTHPORT PIER   1740   71     300/  3/  4 1018.3F
KEWAUNEE LAKESHO 1736   70      30/  2/  6 1018.5S
SHEBOYGAN LAKESH 1800   64      20/  6/  7 1018.9S
ATWATER BUOY     1800   66 65   30/ 10/ 14 1019.1    3/ 6
MILWAUKEE LAKESH 1750   65      30/ 11/ 12   N/A
S MID LAKE